QPF
0.01 0.00 0.00 0.00 0.00 0.00 0.01 0.01 0.00 0.00 0.00 0.00 0.00 0.00 0.00 0.00 0.00 0.01 0.00 0.00 0.00 0.00 0.02 0.06 0.09 0.07 0.06 0.08 0.09 0.10 0.10 0.08 0.08 0.06 0.04 0.05 0.06 0.07 0.08 0.09 0.08 0.08 0.07 0.09 0.10 0.10 0.11 0.08 0.08
0.01 0.00 0.00 0.00 0.00 0.00 0.01 0.01 0.00 0.00 0.00 0.00 0.00 0.00 0.01 0.00 0.00 0.00 0.00 0.00 0.00 0.00 0.02 0.06 0.08 0.06 0.06 0.11 0.11 0.09 0.08 0.06 0.07 0.05 0.05 0.05 0.06 0.07 0.09 0.11 0.08 0.08 0.08 0.10 0.09 0.10 0.11 0.09 0.09
0.01 0.00 0.00 0.00 0.00 0.00 0.00 0.00 0.00 0.00 0.00 0.00 0.00 0.00 0.01 0.00 0.00 0.00 0.00 0.00 0.00 0.00 0.02 0.05 0.08 0.07 0.08 0.10 0.10 0.07 0.06 0.06 0.07 0.05 0.04 0.05 0.07 0.10 0.13 0.14 0.10 0.07 0.06 0.07 0.08 0.09 0.12 0.12 0.10
0.00 0.00 0.00 0.00 0.00 0.00 0.00 0.00 0.00 0.00 0.00 0.00 0.00 0.00 0.00 0.00 0.00 0.00 0.00 0.00 0.00 0.00 0.02 0.04 0.07 0.08 0.09 0.08 0.08 0.05 0.05 0.06 0.07 0.06 0.05 0.05 0.06 0.09 0.09 0.09 0.07 0.06 0.05 0.06 0.08 0.11 0.12 0.12 0.10
0.00 0.00 0.00 0.00 0.00 0.00 0.00 0.00 0.00 0.00 0.00 0.00 0.00 0.00 0.00 0.00 0.00 0.00 0.00 0.00 0.00 0.01 0.01 0.03 0.06 0.08 0.11 0.10 0.09 0.08 0.07 0.07 0.06 0.06 0.06 0.05 0.05 0.07 0.08 0.06 0.05 0.05 0.04 0.05 0.10 0.12 0.12 0.11 0.09
0.00 0.00 0.00 0.00 0.00 0.00 0.00 0.00 0.00 0.00 0.00 0.00 0.00 0.00 0.00 0.00 0.00 0.00 0.00 0.00 0.00 0.00 0.01 0.01 0.04 0.06 0.08 0.09 0.08 0.10 0.07 0.08 0.05 0.05 0.07 0.07 0.07 0.07 0.07 0.06 0.05 0.05 0.07 0.10 0.11 0.10 0.08 0.07 0.07
0.00 0.00 0.00 0.00 0.00 0.00 0.00 0.00 0.00 0.00 0.00 0.00 0.00 0.00 0.00 0.00 0.00 0.00 0.00 0.00 0.00 0.00 0.00 0.01 0.02 0.03 0.04 0.07 0.07 0.05 0.05 0.06 0.06 0.06 0.07 0.06 0.06 0.06 0.08 0.07 0.05 0.07 0.08 0.06 0.06 0.08 0.08 0.07 0.06
0.00 0.00 0.00 0.00 0.00 0.00 0.00 0.00 0.00 0.00 0.00 0.00 0.00 0.00 0.00 0.00 0.00 0.01 0.00 0.00 0.00 0.00 0.01 0.01 0.01 0.02 0.06 0.07 0.06 0.03 0.04 0.05 0.04 0.05 0.06 0.05 0.05 0.05 0.07 0.07 0.07 0.10 0.10 0.07 0.06 0.08 0.08 0.08 0.07
0.01 0.00 0.00 0.00 0.00 0.00 0.00 0.00 0.00 0.00 0.00 0.00 0.00 0.00 0.00 0.00 0.00 0.01 0.00 0.00 0.00 0.00 0.01 0.01 0.01 0.04 0.08 0.06 0.04 0.04 0.03 0.03 0.03 0.03 0.02 0.03 0.05 0.07 0.09 0.09 0.11 0.13 0.13 0.10 0.07 0.05 0.06 0.06 0.06
0.02 0.01 0.01 0.00 0.00 0.00 0.00 0.00 0.00 0.00 0.00 0.00 0.00 0.00 0.00 0.00 0.00 0.01 0.00 0.00 0.00 0.00 0.00 0.01 0.01 0.04 0.09 0.09 0.07 0.04 0.03 0.03 0.02 0.02 0.02 0.02 0.02 0.04 0.03 0.05 0.05 0.05 0.07 0.07 0.05 0.04 0.04 0.02 0.02
0.02 0.02 0.01 0.00 0.00 0.00 0.00 0.00 0.00 0.00 0.00 0.00 0.00 0.00 0.00 0.00 0.01 0.01 0.01 0.00 0.00 0.00 0.00 0.00 0.01 0.03 0.07 0.12 0.10 0.04 0.03 0.03 0.03 0.02 0.03 0.02 0.01 0.01 0.01 0.03 0.04 0.04 0.03 0.03 0.02 0.04 0.03 0.02 0.01
0.01 0.01 0.01 0.01 0.01 0.00 0.01 0.01 0.01 0.00 0.00 0.00 0.00 0.00 0.00 0.00 0.01 0.01 0.01 0.00 0.00 0.00 0.00 0.00 0.00 0.01 0.03 0.06 0.05 0.03 0.02 0.03 0.02 0.02 0.02 0.02 0.01 0.01 0.01 0.01 0.02 0.02 0.02 0.02 0.01 0.01 0.01 0.01 0.01
0.01 0.01 0.01 0.01 0.01 0.01 0.00 0.00 0.00 0.00 0.00 0.00 0.00 0.00 0.00 0.01 0.01 0.00 0.00 0.00 0.00 0.00 0.01 0.00 0.00 0.01 0.01 0.02 0.02 0.02 0.03 0.04 0.04 0.03 0.01 0.01 0.01 0.01 0.01 0.01 0.01 0.01 0.01 0.01 0.01 0.01 0.01 0.01 0.01
0.00 0.00 0.00 0.01 0.01 0.01 0.00 0.00 0.01 0.00 0.01 0.00 0.00 0.01 0.01 0.01 0.01 0.00 0.00 0.00 0.00 0.00 0.00 0.00 0.01 0.01 0.01 0.01 0.01 0.02 0.02 0.02 0.03 0.03 0.02 0.01 0.01 0.02 0.02 0.01 0.01 0.01 0.01 0.01 0.01 0.00 0.01 0.01 0.01
0.00 0.00 0.00 0.01 0.01 0.01 0.01 0.01 0.01 0.01 0.01 0.01 0.01 0.01 0.01 0.01 0.01 0.01 0.01 0.00 0.00 0.00 0.00 0.00 0.00 0.01 0.01 0.01 0.01 0.01 0.01 0.01 0.02 0.01 0.02 0.02 0.02 0.02 0.01 0.02 0.02 0.01 0.01 0.01 0.00 0.00 0.00 0.02 0.01
0.00 0.00 0.00 0.00 0.00 0.01 0.01 0.03 0.01 0.01 0.01 0.01 0.01 0.01 0.01 0.01 0.01 0.01 0.01 0.00 0.00 0.00 0.00 0.01 0.00 0.01 0.01 0.01 0.02 0.01 0.01 0.01 0.01 0.01 0.01 0.01 0.01 0.01 0.02 0.03 0.02 0.02 0.02 0.02 0.01 0.00 0.01 0.01 0.02
0.00 0.00 0.00 0.00 0.00 0.01 0.01 0.02 0.01 0.01 0.01 0.01 0.00 0.00 0.00 0.00 0.01 0.00 0.00 0.00 0.00 0.00 0.01 0.01 0.01 0.01 0.01 0.01 0.02 0.02 0.01 0.02 0.01 0.02 0.01 0.01 0.01 0.01 0.02 0.02 0.02 0.02 0.03 0.03 0.01 0.01 0.01 0.01 0.01
0.00 0.00 0.00 0.00 0.00 0.00 0.01 0.00 0.01 0.01 0.01 0.00 0.00 0.01 0.01 0.00 0.00 0.00 0.00 0.00 0.01 0.01 0.01 0.02 0.01 0.01 0.01 0.01 0.01 0.01 0.01 0.02 0.02 0.02 0.01 0.01 0.01 0.01 0.01 0.01 0.02 0.02 0.02 0.02 0.01 0.01 0.00 0.01 0.01
0.00 0.00 0.00 0.00 0.00 0.01 0.01 0.00 0.00 0.01 0.01 0.01 0.01 0.01 0.00 0.00 0.00 0.00 0.01 0.01 0.01 0.01 0.01 0.01 0.01 0.01 0.01 0.02 0.02 0.02 0.02 0.01 0.01 0.02 0.01 0.01 0.01 0.01 0.01 0.01 0.01 0.01 0.01 0.02 0.01 0.01 0.01 0.01 0.01
0.00 0.00 0.00 0.00 0.00 0.00 0.00 0.00 0.00 0.01 0.01 0.01 0.01 0.01 0.00 0.00 0.00 0.01 0.01 0.01 0.01 0.00 0.01 0.00 0.00 0.01 0.01 0.02 0.02 0.02 0.03 0.02 0.01 0.01 0.02 0.03 0.02 0.01 0.00 0.01 0.01 0.01 0.01 0.01 0.01 0.00 0.01 0.01 0.01
0.00 0.00 0.01 0.01 0.01 0.01 0.00 0.01 0.00 0.00 0.01 0.01 0.00 0.01 0.01 0.01 0.00 0.00 0.00 0.00 0.01 0.00 0.00 0.00 0.01 0.01 0.01 0.01 0.01 0.01 0.02 0.03 0.03 0.02 0.02 0.02 0.02 0.02 0.01 0.01 0.01 0.01 0.01 0.01 0.01 0.00 0.00 0.01 0.01
0.00 0.00 0.00 0.00 0.01 0.02 0.01 0.01 0.00 0.00 0.00 0.00 0.00 0.00 0.00 0.00 0.00 0.00 0.00 0.00 0.00 0.01 0.01 0.00 0.01 0.01 0.01 0.01 0.01 0.01 0.02 0.02 0.02 0.02 0.02 0.02 0.02 0.02 0.03 0.02 0.01 0.01 0.01 0.01 0.01 0.00 0.01 0.01 0.01
0.00 0.00 0.00 0.01 0.01 0.02 0.01 0.02 0.01 0.00 0.00 0.00 0.00 0.00 0.00 0.00 0.00 0.00 0.00 0.00 0.00 0.01 0.01 0.00 0.01 0.01 0.01 0.01 0.01 0.02 0.01 0.02 0.01 0.01 0.02 0.01 0.01 0.01 0.03 0.02 0.01 0.01 0.01 0.01 0.01 0.01 0.01 0.01 0.01
0.01 0.01 0.01 0.02 0.03 0.02 0.01 0.01 0.01 0.00 0.00 0.00 0.00 0.00 0.00 0.00 0.00 0.00 0.00 0.00 0.00 0.01 0.00 0.00 0.01 0.01 0.01 0.01 0.00 0.01 0.01 0.01 0.01 0.01 0.01 0.01 0.01 0.01 0.01 0.01 0.02 0.01 0.01 0.01 0.01 0.01 0.01 0.01 0.01
0.01 0.02 0.02 0.02 0.03 0.02 0.01 0.01 0.01 0.00 0.00 0.00 0.00 0.00 0.00 0.00 0.00 0.00 0.00 0.00 0.01 0.00 0.00 0.00 0.01 0.01 0.01 0.01 0.00 0.00 0.00 0.01 0.01 0.01 0.00 0.00 0.00 0.01 0.01 0.01 0.01 0.01 0.01 0.00 0.00 0.01 0.00 0.00 0.00
0.02 0.01 0.02 0.02 0.02 0.01 0.01 0.01 0.01 0.00 0.00 0.00 0.00 0.00 0.00 0.00 0.00 0.00 0.00 0.00 0.00 0.01 0.01 0.00 0.01 0.01 0.01 0.01 0.00 0.00 0.01 0.01 0.01 0.01 0.01 0.00 0.00 0.00 0.01 0.01 0.01 0.01 0.01 0.01 0.00 0.00 0.00 0.00 0.00
0.01 0.01 0.02 0.03 0.03 0.01 0.01 0.01 0.00 0.00 0.00 0.00 0.00 0.00 0.00 0.00 0.00 0.00 0.00 0.00 0.00 0.00 0.01 0.01 0.01 0.01 0.01 0.01 0.01 0.01 0.01 0.01 0.01 0.01 0.01 0.00 0.00 0.01 0.01 0.01 0.01 0.01 0.01 0.01 0.01 0.00 0.00 0.01 0.01
0.01 0.01 0.02 0.02 0.02 0.02 0.02 0.01 0.00 0.00 0.00 0.00 0.00 0.00 0.00 0.00 0.00 0.00 0.00 0.00 0.00 0.00 0.01 0.01 0.01 0.01 0.01 0.01 0.01 0.01 0.01 0.01 0.01 0.01 0.00 0.00 0.00 0.01 0.01 0.01 0.01 0.01 0.01 0.01 0.01 0.01 0.01 0.01 0.01
0.01 0.01 0.02 0.02 0.02 0.01 0.02 0.01 0.00 0.00 0.00 0.00 0.01 0.01 0.00 0.00 0.00 0.00 0.00 0.00 0.00 0.01 0.01 0.01 0.01 0.01 0.01 0.01 0.01 0.00 0.01 0.01 0.01 0.00 0.00 0.01 0.01 0.01 0.01 0.02 0.02 0.01 0.01 0.01 0.01 0.01 0.01 0.01 0.01
0.00 0.01 0.01 0.02 0.02 0.01 0.01 0.01 0.00 0.00 0.00 0.00 0.00 0.00 0.00 0.00 0.00 0.00 0.00 0.00 0.01 0.02 0.02 0.01 0.01 0.01 0.01 0.00 0.00 0.00 0.01 0.01 0.01 0.01 0.01 0.01 0.01 0.01 0.01 0.02 0.02 0.02 0.01 0.01 0.01 0.01 0.01 0.01 0.01
MSLP
1006.80 1007.41 1008.27 1009.29 1010.37 1011.39 1012.26 1012.91 1013.32 1013.51 1013.54 1013.47 1013.36 1013.26 1013.16 1013.05 1012.87 1012.60 1012.21 1011.68 1011.06 1010.39 1009.73 1009.13 1008.64 1008.27 1007.99 1007.78 1007.60 1007.42 1007.22 1007.00 1006.79 1006.61 1006.48 1006.43 1006.47 1006.58 1006.77 1007.01 1007.29 1007.59 1007.93 1008.27 1008.62 1008.95 1009.25 1009.50 1009.69
1007.18 1007.98 1008.98 1010.09 1011.18 1012.13 1012.86 1013.33 1013.54 1013.52 1013.38 1013.19 1013.01 1012.88 1012.80 1012.74 1012.63 1012.44 1012.12 1011.67 1011.12 1010.51 1009.90 1009.36 1008.91 1008.56 1008.30 1008.10 1007.92 1007.73 1007.53 1007.31 1007.10 1006.92 1006.81 1006.76 1006.80 1006.92 1007.10 1007.33 1007.60 1007.90 1008.22 1008.57 1008.91 1009.25 1009.54 1009.78 1009.96
1007.72 1008.67 1009.78 1010.91 1011.95 1012.79 1013.36 1013.63 1013.64 1013.45 1013.16 1012.86 1012.63 1012.48 1012.41 1012.38 1012.32 1012.18 1011.92 1011.54 1011.06 1010.53 1010.00 1009.52 1009.12 1008.82 1008.59 1008.40 1008.22 1008.03 1007.83 1007.62 1007.42 1007.27 1007.17 1007.16 1007.22 1007.34 1007.52 1007.74 1008.00 1008.28 1008.59 1008.92 1009.25 1009.58 1009.86 1010.10 1010.26
1008.39 1009.45 1010.58 1011.69 1012.63 1013.33 1013.72 1013.81 1013.65 1013.32 1012.93 1012.57 1012.30 1012.14 1012.07 1012.06 1012.02 1011.91 1011.69 1011.35 1010.93 1010.47 1010.02 1009.62 1009.30 1009.05 1008.85 1008.68 1008.51 1008.32 1008.12 1007.93 1007.75 1007.63 1007.59 1007.61 1007.70 1007.85 1008.04 1008.26 1008.50 1008.76 1009.04 1009.34 1009.65 1009.95 1010.22 1010.44 1010.59
1009.14 1010.22 1011.32 1012.34 1013.15 1013.69 1013.92 1013.86 1013.59 1013.18 1012.75 1012.37 1012.10 1011.94 1011.88 1011.86 1011.82 1011.70 1011.49 1011.18 1010.81 1010.42 1010.04 1009.71 1009.46 1009.27 1009.10 1008.95 1008.79 1008.61 1008.42 1008.24 1008.11 1008.03 1008.04 1008.12 1008.26 1008.44 1008.65 1008.86 1009.08 1009.31 1009.56 1009.82 1010.09 1010.37 1010.62 1010.82 1010.96
1009.87 1010.91 1011.93 1012.81 1013.46 1013.85 1013.95 1013.80 1013.47 1013.05 1012.64 1012.30 1012.06 1011.94 1011.88 1011.85 1011.79 1011.65 1011.42 1011.12 1010.77 1010.43 1010.11 1009.86 1009.66 1009.52 1009.39 1009.26 1009.10 1008.93 1008.74 1008.59 1008.49 1008.47 1008.53 1008.67 1008.86 1009.08 1009.31 1009.53 1009.73 1009.92 1010.13 1010.34 1010.58 1010.81 1011.03 1011.21 1011.33
1010.52 1011.47 1012.35 1013.07 1013.57 1013.82 1013.82 1013.63 1013.31 1012.94 1012.61 1012.35 1012.19 1012.12 1012.08 1012.04 1011.95 1011.78 1011.52 1011.21 1010.88 1010.56 1010.30 1010.10 1009.96 1009.85 1009.74 1009.62 1009.46 1009.28 1009.11 1008.97 1008.91 1008.93 1009.05 1009.25 1009.49 1009.74 1009.99 1010.20 1010.38 1010.54 1010.71 1010.88 1011.07 1011.26 1011.44 1011.59 1011.69
1011.04 1011.87 1012.59 1013.15 1013.50 1013.64 1013.59 1013.40 1013.14 1012.87 1012.65 1012.51 1012.44 1012.43 1012.42 1012.37 1012.25 1012.05 1011.77 1011.45 1011.12 1010.84 1010.61 1010.45 1010.35 1010.26 1010.16 1010.04 1009.87 1009.69 1009.52 1009.40 1009.36 1009.43 1009.59 1009.83 1010.11 1010.39 1010.64 1010.85 1011.01 1011.14 1011.27 1011.39 1011.54 1011.69 1011.84 1011.96 1012.03
1011.42 1012.12 1012.69 1013.10 1013.33 1013.39 1013.32 1013.17 1012.99 1012.84 1012.74 1012.72 1012.74 1012.79 1012.81 1012.76 1012.62 1012.39 1012.10 1011.78 1011.47 1011.21 1011.02 1010.90 1010.82 1010.75 1010.65 1010.51 1010.34 1010.15 1009.98 1009.87 1009.85 1009.94 1010.13 1010.40 1010.70 1010.99 1011.24 1011.43 1011.58 1011.68 1011.77 1011.87 1011.98 1012.09 1012.20 1012.29 1012.33
1011.68 1012.27 1012.71 1013.00 1013.14 1013.16 1013.09 1012.99 1012.90 1012.85 1012.86 1012.93 1013.03 1013.11 1013.15 1013.09 1012.95 1012.71 1012.42 1012.12 1011.84 1011.63 1011.48 1011.39 1011.33 1011.27 1011.17 1011.02 1010.84 1010.64 1010.46 1010.36 1010.35 1010.46 1010.66 1010.94 1011.24 1011.53 1011.77 1011.94 1012.06 1012.15 1012.21 1012.28 1012.36 1012.45 1012.53 1012.58 1012.59
1011.89 1012.38 1012.73 1012.94 1013.02 1013.02 1012.97 1012.91 1012.89 1012.91 1012.99 1013.11 1013.24 1013.34 1013.37 1013.30 1013.15 1012.93 1012.66 1012.40 1012.18 1012.01 1011.91 1011.86 1011.83 1011.77 1011.67 1011.52 1011.33 1011.13 1010.95 1010.85 1010.86 1010.97 1011.17 1011.44 1011.72 1011.99 1012.21 1012.36 1012.46 1012.53 1012.58 1012.63 1012.70 1012.77 1012.82 1012.84 1012.81
1012.08 1012.51 1012.80 1012.96 1013.02 1013.01 1012.98 1012.96 1012.98 1013.03 1013.14 1013.25 1013.37 1013.43 1013.44 1013.36 1013.21 1013.01 1012.78 1012.58 1012.42 1012.32 1012.28 1012.27 1012.26 1012.22 1012.13 1011.98 1011.79 1011.59 1011.43 1011.34 1011.34 1011.45 1011.64 1011.89 1012.15 1012.38 1012.57 1012.69 1012.77 1012.83 1012.87 1012.92 1012.97 1013.03 1013.06 1013.04 1012.98
1012.30 1012.69 1012.94 1013.08 1013.14 1013.15 1013.14 1013.14 1013.16 1013.21 1013.28 1013.36 1013.41 1013.43 1013.39 1013.29 1013.14 1012.97 1012.80 1012.66 1012.58 1012.55 1012.57 1012.60 1012.62 1012.60 1012.53 1012.39 1012.21 1012.03 1011.88 1011.79 1011.80 1011.90 1012.07 1012.28 1012.50 1012.69 1012.84 1012.94 1013.00 1013.04 1013.08 1013.13 1013.18 1013.22 1013.24 1013.19 1013.09
1012.53 1012.89 1013.12 1013.27 1013.34 1013.37 1013.38 1013.39 1013.40 1013.42 1013.43 1013.44 1013.42 1013.36 1013.27 1013.15 1013.01 1012.87 1012.76 1012.70 1012.69 1012.72 1012.79 1012.87 1012.92 1012.92 1012.86 1012.74 1012.58 1012.42 1012.29 1012.22 1012.23 1012.31 1012.45 1012.62 1012.79 1012.94 1013.04 1013.11 1013.15 1013.18 1013.21 1013.26 1013.31 1013.35 1013.34 1013.27 1013.13
1012.74 1013.07 1013.30 1013.45 1013.55 1013.61 1013.64 1013.65 1013.65 1013.62 1013.58 1013.51 1013.41 1013.29 1013.16 1013.02 1012.90 1012.80 1012.75 1012.75 1012.80 1012.89 1013.00 1013.10 1013.17 1013.18 1013.14 1013.04 1012.91 1012.78 1012.67 1012.62 1012.62 1012.69 1012.79 1012.92 1013.03 1013.13 1013.18 1013.21 1013.22 1013.24 1013.27 1013.31 1013.36 1013.39 1013.37 1013.28 1013.11
1012.89 1013.18 1013.39 1013.55 1013.68 1013.77 1013.83 1013.86 1013.84 1013.78 1013.68 1013.56 1013.41 1013.25 1013.10 1012.96 1012.87 1012.81 1012.81 1012.86 1012.96 1013.08 1013.21 1013.32 1013.40 1013.42 1013.39 1013.32 1013.22 1013.12 1013.04 1013.00 1013.00 1013.04 1013.11 1013.18 1013.24 1013.28 1013.29 1013.28 1013.26 1013.26 1013.27 1013.30 1013.34 1013.35 1013.32 1013.21 1013.02
1012.91 1013.15 1013.35 1013.52 1013.68 1013.80 1013.89 1013.93 1013.91 1013.84 1013.72 1013.56 1013.39 1013.22 1013.08 1012.98 1012.93 1012.92 1012.97 1013.06 1013.18 1013.31 1013.44 1013.55 1013.62 1013.65 1013.63 1013.58 1013.52 1013.45 1013.39 1013.36 1013.36 1013.39 1013.41 1013.43 1013.44 1013.42 1013.38 1013.33 1013.28 1013.25 1013.24 1013.26 1013.27 1013.27 1013.22 1013.09 1012.89
1012.79 1012.98 1013.17 1013.35 1013.53 1013.68 1013.80 1013.85 1013.84 1013.76 1013.63 1013.47 1013.31 1013.17 1013.07 1013.02 1013.03 1013.08 1013.17 1013.29 1013.42 1013.55 1013.66 1013.75 1013.81 1013.84 1013.84 1013.82 1013.79 1013.76 1013.74 1013.73 1013.73 1013.73 1013.72 1013.70 1013.65 1013.58 1013.49 1013.40 1013.32 1013.26 1013.22 1013.21 1013.20 1013.17 1013.10 1012.96 1012.75
1012.54 1012.70 1012.88 1013.07 1013.27 1013.45 1013.58 1013.64 1013.62 1013.53 1013.40 1013.25 1013.12 1013.02 1012.98 1013.01 1013.08 1013.20 1013.34 1013.49 1013.62 1013.74 1013.83 1013.91 1013.95 1013.99 1014.01 1014.03 1014.05 1014.06 1014.08 1014.09 1014.09 1014.08 1014.04 1013.98 1013.89 1013.78 1013.66 1013.53 1013.42 1013.32 1013.25 1013.20 1013.15 1013.09 1013.00 1012.85 1012.64
1012.25 1012.39 1012.58 1012.79 1013.00 1013.18 1013.30 1013.33 1013.28 1013.16 1013.01 1012.86 1012.76 1012.71 1012.74 1012.85 1013.00 1013.19 1013.38 1013.55 1013.70 1013.81 1013.89 1013.96 1014.01 1014.06 1014.12 1014.19 1014.27 1014.34 1014.40 1014.44 1014.46 1014.44 1014.39 1014.30 1014.18 1014.04 1013.88 1013.73 1013.59 1013.47 1013.36 1013.27 1013.18 1013.09 1012.96 1012.80 1012.58
1011.99 1012.16 1012.38 1012.61 1012.83 1012.98 1013.05 1013.02 1012.89 1012.70 1012.50 1012.32 1012.22 1012.21 1012.30 1012.48 1012.72 1012.98 1013.22 1013.44 1013.60 1013.73 1013.81 1013.89 1013.96 1014.06 1014.17 1014.30 1014.45 1014.59 1014.71 1014.79 1014.83 1014.82 1014.76 1014.65 1014.52 1014.35 1014.18 1014.01 1013.85 1013.70 1013.56 1013.43 1013.30 1013.17 1013.01 1012.83 1012.60
1011.86 1012.10 1012.37 1012.63 1012.84 1012.95 1012.93 1012.78 1012.53 1012.22 1011.92 1011.67 1011.54 1011.54 1011.67 1011.92 1012.23 1012.56 1012.87 1013.14 1013.34 1013.49 1013.61 1013.71 1013.83 1013.98 1014.16 1014.38 1014.60 1014.81 1014.99 1015.13 1015.19 1015.20 1015.14 1015.03 1014.89 1014.72 1014.54 1014.36 1014.19 1014.02 1013.85 1013.68 1013.51 1013.34 1013.15 1012.94 1012.71
1011.93 1012.26 1012.60 1012.89 1013.08 1013.12 1012.98 1012.69 1012.27 1011.80 1011.36 1011.01 1010.82 1010.80 1010.95 1011.24 1011.61 1012.01 1012.39 1012.72 1012.97 1013.17 1013.33 1013.49 1013.66 1013.88 1014.14 1014.44 1014.74 1015.03 1015.27 1015.45 1015.55 1015.57 1015.52 1015.42 1015.28 1015.12 1014.94 1014.76 1014.58 1014.39 1014.19 1013.99 1013.79 1013.57 1013.35 1013.13 1012.89
1012.19 1012.63 1013.05 1013.37 1013.53 1013.49 1013.22 1012.76 1012.16 1011.51 1010.90 1010.43 1010.15 1010.10 1010.25 1010.57 1010.99 1011.46 1011.91 1012.30 1012.61 1012.87 1013.08 1013.30 1013.54 1013.83 1014.16 1014.52 1014.90 1015.25 1015.55 1015.76 1015.89 1015.93 1015.90 1015.80 1015.67 1015.52 1015.35 1015.17 1014.98 1014.78 1014.57 1014.34 1014.10 1013.85 1013.61 1013.36 1013.12
1012.58 1013.14 1013.63 1013.98 1014.11 1013.98 1013.58 1012.96 1012.18 1011.36 1010.61 1010.02 1009.66 1009.56 1009.71 1010.05 1010.52 1011.04 1011.55 1012.00 1012.37 1012.68 1012.95 1013.22 1013.52 1013.86 1014.26 1014.68 1015.10 1015.50 1015.83 1016.08 1016.23 1016.28 1016.26 1016.17 1016.05 1015.91 1015.74 1015.57 1015.39 1015.18 1014.95 1014.70 1014.43 1014.15 1013.89 1013.63 1013.39
1013.01 1013.66 1014.21 1014.58 1014.68 1014.47 1013.97 1013.22 1012.31 1011.36 1010.50 1009.83 1009.41 1009.29 1009.43 1009.79 1010.30 1010.86 1011.42 1011.91 1012.34 1012.69 1013.01 1013.32 1013.65 1014.04 1014.47 1014.92 1015.38 1015.79 1016.15 1016.40 1016.56 1016.62 1016.60 1016.53 1016.42 1016.28 1016.13 1015.97 1015.78 1015.57 1015.32 1015.05 1014.76 1014.46 1014.18 1013.92 1013.68
1013.35 1014.06 1014.65 1015.02 1015.09 1014.84 1014.27 1013.44 1012.46 1011.45 1010.54 1009.84 1009.42 1009.29 1009.45 1009.84 1010.38 1010.97 1011.56 1012.09 1012.54 1012.92 1013.27 1013.60 1013.95 1014.35 1014.79 1015.25 1015.71 1016.13 1016.48 1016.74 1016.90 1016.96 1016.95 1016.88 1016.78 1016.66 1016.52 1016.36 1016.18 1015.96 1015.70 1015.41 1015.10 1014.79 1014.49 1014.22 1013.99
1013.50 1014.23 1014.82 1015.17 1015.22 1014.94 1014.35 1013.52 1012.54 1011.55 1010.67 1010.00 1009.62 1009.53 1009.73 1010.15 1010.72 1011.34 1011.94 1012.48 1012.95 1013.34 1013.69 1014.02 1014.38 1014.77 1015.20 1015.66 1016.10 1016.51 1016.85 1017.10 1017.25 1017.31 1017.31 1017.25 1017.17 1017.06 1016.93 1016.78 1016.60 1016.37 1016.11 1015.80 1015.47 1015.14 1014.83 1014.56 1014.33
1013.41 1014.11 1014.65 1014.97 1015.00 1014.72 1014.15 1013.36 1012.46 1011.55 1010.77 1010.20 1009.91 1009.90 1010.16 1010.62 1011.21 1011.85 1012.46 1013.00 1013.46 1013.85 1014.19 1014.52 1014.86 1015.24 1015.66 1016.09 1016.52 1016.91 1017.23 1017.47 1017.62 1017.69 1017.70 1017.65 1017.58 1017.49 1017.38 1017.24 1017.06 1016.83 1016.56 1016.24 1015.89 1015.54 1015.21 1014.92 1014.69
1013.08 1013.70 1014.18 1014.44 1014.44 1014.16 1013.64 1012.94 1012.15 1011.39 1010.75 1010.33 1010.16 1010.25 1010.59 1011.09 1011.71 1012.35 1012.95 1013.49 1013.95 1014.33 1014.67 1014.99 1015.34 1015.71 1016.11 1016.53 1016.94 1017.32 1017.63 1017.86 1018.02 1018.09 1018.11 1018.09 1018.03 1017.96 1017.86 1017.73 1017.56 1017.33 1017.05 1016.72 1016.36 1015.99 1015.64 1015.33 1015.07
Thickness
5784 5786 5787 5779 5765 5751 5739 5743 5751 5750 5753 5759 5762 5761 5756 5752 5747 5740 5755 5764 5766 5766 5765 5763 5762 5762 5762 5763 5764 5764 5765 5765 5766 5767 5767 5767 5768 5768 5768 5768 5768 5768 5767 5767 5767 5768 5768 5768 5769
5786 5786 5780 5771 5754 5737 5733 5745 5747 5750 5754 5759 5760 5759 5755 5751 5755 5755 5758 5761 5764 5764 5763 5761 5759 5759 5760 5760 5761 5762 5762 5762 5763 5763 5764 5764 5764 5765 5765 5765 5765 5765 5764 5764 5764 5764 5764 5765 5765
5785 5783 5771 5760 5747 5739 5735 5746 5749 5752 5757 5757 5754 5756 5752 5748 5753 5755 5758 5761 5762 5761 5760 5758 5756 5756 5757 5757 5757 5758 5759 5759 5760 5760 5761 5761 5761 5761 5761 5761 5761 5761 5761 5760 5760 5761 5761 5761 5761
5781 5774 5766 5752 5738 5743 5746 5749 5752 5750 5752 5755 5754 5748 5750 5753 5755 5757 5758 5760 5759 5758 5758 5755 5753 5753 5754 5754 5754 5755 5755 5755 5756 5756 5757 5757 5757 5757 5757 5757 5757 5757 5757 5757 5757 5757 5757 5757 5757
5777 5765 5749 5739 5737 5744 5751 5753 5754 5749 5748 5751 5752 5744 5742 5751 5756 5757 5756 5757 5756 5756 5755 5753 5750 5750 5750 5750 5750 5751 5751 5751 5752 5752 5752 5753 5753 5753 5753 5753 5753 5753 5753 5753 5753 5753 5753 5753 5753
5764 5759 5741 5731 5733 5741 5749 5753 5752 5749 5748 5749 5748 5743 5741 5750 5752 5752 5754 5754 5754 5753 5753 5751 5747 5747 5747 5747 5747 5747 5747 5748 5748 5748 5748 5748 5748 5749 5749 5749 5749 5749 5749 5749 5749 5749 5749 5749 5749
5757 5749 5739 5735 5732 5736 5744 5753 5750 5747 5745 5747 5751 5741 5740 5746 5749 5751 5751 5751 5750 5750 5750 5749 5748 5746 5744 5744 5744 5744 5744 5744 5744 5744 5744 5744 5744 5744 5744 5744 5745 5745 5745 5745 5744 5744 5744 5745 5745
5762 5750 5737 5736 5732 5734 5746 5750 5751 5749 5745 5752 5752 5742 5738 5745 5749 5749 5748 5748 5747 5747 5747 5747 5746 5746 5745 5744 5741 5740 5740 5739 5740 5740 5740 5740 5740 5740 5740 5740 5740 5740 5740 5740 5739 5739 5740 5740 5740
5761 5744 5733 5734 5734 5737 5746 5744 5747 5752 5749 5747 5750 5749 5748 5749 5747 5745 5743 5743 5743 5743 5744 5744 5744 5743 5743 5742 5739 5738 5737 5736 5737 5737 5736 5738 5739 5739 5738 5736 5735 5735 5735 5734 5734 5734 5735 5736 5736
5753 5738 5736 5744 5746 5744 5745 5744 5745 5745 5741 5740 5742 5745 5747 5746 5744 5741 5740 5739 5739 5739 5741 5742 5742 5741 5741 5740 5738 5737 5736 5735 5735 5735 5735 5736 5735 5734 5733 5730 5730 5730 5730 5730 5730 5731 5732 5734 5735
5749 5739 5742 5746 5749 5748 5744 5743 5747 5742 5735 5740 5740 5740 5742 5742 5742 5740 5740 5739 5738 5739 5738 5739 5739 5738 5738 5736 5735 5734 5732 5732 5732 5732 5732 5732 5732 5731 5730 5729 5728 5728 5728 5728 5727 5729 5730 5731 5731
5744 5742 5745 5745 5747 5745 5743 5743 5742 5741 5741 5749 5749 5746 5742 5740 5739 5738 5738 5737 5737 5736 5736 5736 5736 5736 5735 5734 5731 5731 5730 5730 5729 5729 5729 5729 5728 5728 5727 5727 5725 5725 5725 5724 5725 5725 5726 5727 5727
5740 5739 5742 5743 5743 5744 5743 5740 5739 5738 5744 5748 5747 5744 5741 5740 5739 5739 5739 5737 5736 5734 5733 5734 5733 5733 5732 5730 5728 5729 5727 5727 5727 5724 5726 5725 5725 5725 5724 5723 5722 5722 5722 5722 5721 5722 5722 5722 5722
5739 5739 5739 5741 5740 5741 5736 5737 5737 5736 5742 5742 5741 5740 5740 5738 5738 5737 5736 5735 5734 5733 5733 5732 5731 5730 5729 5729 5728 5726 5725 5723 5723 5722 5722 5722 5721 5721 5721 5720 5718 5718 5718 5718 5718 5718 5717 5718 5717
5740 5734 5733 5735 5737 5737 5736 5728 5731 5737 5739 5736 5737 5738 5737 5736 5736 5735 5735 5734 5734 5733 5733 5731 5729 5728 5727 5726 5724 5723 5722 5722 5721 5719 5720 5719 5718 5718 5717 5716 5716 5715 5715 5715 5714 5714 5714 5713 5713
5735 5728 5720 5728 5732 5733 5728 5718 5730 5737 5735 5732 5734 5735 5733 5733 5734 5734 5734 5734 5733 5732 5731 5729 5727 5725 5724 5723 5721 5721 5720 5718 5717 5716 5716 5716 5715 5714 5713 5712 5712 5710 5710 5710 5709 5710 5709 5708 5708
5723 5717 5716 5721 5729 5730 5726 5721 5729 5735 5733 5731 5732 5733 5732 5731 5731 5732 5732 5732 5731 5730 5729 5727 5725 5723 5722 5720 5718 5717 5716 5714 5714 5713 5712 5712 5712 5711 5710 5708 5707 5707 5706 5706 5706 5705 5705 5704 5703
5713 5714 5713 5715 5724 5724 5721 5722 5727 5731 5730 5731 5731 5732 5731 5730 5730 5731 5730 5730 5729 5728 5727 5725 5723 5721 5720 5717 5716 5714 5713 5712 5711 5710 5709 5708 5708 5708 5707 5705 5705 5704 5702 5701 5701 5700 5700 5700 5700
5720 5715 5712 5716 5723 5719 5718 5721 5726 5729 5727 5727 5729 5730 5731 5730 5731 5731 5728 5727 5726 5725 5724 5722 5720 5718 5716 5714 5712 5710 5709 5709 5708 5707 5706 5704 5704 5704 5703 5702 5702 5700 5699 5698 5698 5697 5696 5696 5697
5716 5710 5711 5714 5719 5717 5717 5720 5727 5728 5726 5728 5729 5730 5730 5729 5729 5727 5725 5724 5724 5722 5721 5720 5718 5716 5714 5711 5711 5709 5708 5707 5706 5703 5702 5701 5701 5700 5700 5700 5698 5697 5695 5694 5694 5692 5692 5693 5693
5712 5709 5709 5708 5712 5715 5711 5715 5722 5727 5728 5728 5729 5730 5731 5728 5727 5726 5724 5722 5721 5720 5719 5717 5716 5714 5711 5709 5708 5706 5704 5703 5702 5700 5699 5698 5697 5696 5696 5696 5695 5693 5693 5691 5690 5689 5687 5687 5689
5705 5714 5711 5707 5703 5705 5705 5699 5718 5724 5722 5724 5726 5728 5728 5728 5727 5725 5722 5720 5719 5718 5717 5716 5714 5712 5710 5707 5704 5702 5700 5699 5699 5699 5697 5695 5694 5693 5692 5691 5691 5690 5689 5688 5687 5687 5686 5683 5683
5709 5712 5709 5706 5703 5701 5704 5698 5714 5721 5718 5723 5727 5727 5727 5727 5726 5723 5721 5719 5718 5716 5714 5713 5711 5708 5707 5705 5702 5700 5698 5697 5696 5695 5694 5692 5691 5689 5688 5687 5687 5686 5685 5685 5684 5683 5682 5681 5680
5708 5706 5703 5703 5700 5688 5701 5695 5704 5719 5721 5724 5727 5728 5727 5726 5724 5722 5720 5717 5715 5713 5711 5708 5706 5704 5702 5700 5699 5698 5695 5693 5691 5690 5689 5688 5688 5686 5684 5683 5683 5682 5681 5681 5680 5679 5678 5678 5677
5703 5695 5685 5684 5683 5688 5700 5694 5706 5723 5726 5725 5725 5726 5726 5725 5722 5719 5716 5713 5711 5709 5707 5706 5703 5701 5699 5698 5697 5696 5694 5692 5689 5687 5686 5684 5684 5682 5681 5680 5679 5678 5677 5677 5676 5675 5675 5674 5673
5699 5697 5682 5674 5678 5688 5693 5692 5712 5723 5724 5725 5725 5724 5723 5722 5720 5717 5714 5711 5709 5706 5704 5703 5701 5699 5697 5695 5695 5693 5691 5688 5687 5684 5683 5681 5681 5680 5679 5677 5676 5674 5673 5672 5672 5672 5671 5671 5670
5693 5693 5698 5687 5682 5678 5690 5700 5711 5718 5718 5718 5719 5719 5718 5718 5716 5714 5711 5709 5707 5704 5702 5701 5699 5697 5695 5693 5691 5690 5688 5685 5683 5682 5681 5679 5678 5676 5675 5673 5672 5670 5669 5668 5667 5667 5667 5667 5666
5697 5695 5687 5679 5668 5667 5680 5688 5698 5708 5711 5713 5714 5714 5714 5713 5712 5710 5708 5705 5704 5702 5700 5698 5696 5694 5692 5690 5688 5686 5684 5682 5680 5679 5677 5675 5674 5672 5671 5670 5668 5667 5666 5664 5663 5662 5662 5662 5661
5685 5684 5684 5681 5679 5670 5670 5686 5709 5709 5710 5710 5711 5712 5710 5709 5708 5707 5704 5702 5700 5698 5695 5693 5692 5690 5688 5686 5684 5682 5680 5678 5676 5674 5673 5671 5670 5668 5666 5665 5664 5663 5662 5661 5659 5658 5658 5658 5658
5688 5687 5683 5671 5671 5674 5672 5684 5710 5708 5708 5708 5708 5708 5707 5705 5703 5701 5699 5697 5695 5693 5691 5689 5687 5686 5684 5682 5680 5678 5676 5674 5672 5670 5669 5667 5665 5663 5662 5660 5659 5658 5657 5657 5655 5654 5653 5653 5652